Regional Weather Roundup
Issued by NWS Upton, NY

Current Version | Previous Version | Graphics & Text | Print | Product List | Glossary Off
Versions: 1 2 3 4 5 6 7 8 9 10 11 12 13 14 15 16 17 18 19 20 21 22 23 24 25 26 27 28 29 30 31 32 33 34 35 36 37 38 39 40 41 42 43 44 45 46 47 48 49 50

000
ASUS41 KOKX 311304
RWROKX

REGIONAL WEATHER ROUNDUP
NATIONAL WEATHER SERVICE NEW YORK NY
900 AM EDT FRI JUL 31 2015

NOTE: "FAIR" INDICATES FEW OR NO CLOUDS BELOW 12,000 FEET WITH NO
SIGNIFICANT WEATHER AND/OR OBSTRUCTIONS TO VISIBILITY.

NYZ071-072-176-178-NJZ106-104-311400-
NEW YORK CITY METRO AREA


CITY           SKY/WX    TMP DP  RH WIND       PRES   REMARKS
CENTRAL PARK   SUNNY     77  59  53 VRB3      29.91S
LAGUARDIA APRT MOSUNNY   78  60  53 NW6       29.87S
KENNEDY INTL   MOSUNNY   82  59  45 NW8       29.88S
NEWARK/LIBERTY MOSUNNY   80  61  52 W5        29.88S
BRNX BOT. GARD   N/A    N/A N/A N/A W7        29.89S
TETERBORO      SUNNY     79  59  50 NW6       29.87S
$$

NYZ177-179-078>081-311400-
LONG ISLAND NEW YORK

CITY           SKY/WX    TMP DP  RH WIND       PRES   REMARKS
FARMINGDALE    SUNNY     78  62  57 NW8       29.87S
ISLIP          MOSUNNY   77  66  68 NW6       29.85S
SHIRLEY        SUNNY     78  67  68 NW6       29.87S
WESTHAMPTON    SUNNY     80  68  66 NW8       29.87S
MONTAUK POINT    N/A     77  73  87 VRB3      29.86S
$$

NYZ052-065-067-311400-
HUDSON VALLEY

CITY           SKY/WX    TMP DP  RH WIND       PRES   REMARKS
WHITE PLAINS   SUNNY     75  63  66 NW8       29.88S
NEWBURGH       SUNNY     73  64  73 W6        29.90S
MONTGOMERY     SUNNY     75  63  66 VRB7      29.88F
POUGHKEEPSIE   SUNNY     75  62  64 VRB5      29.86S
ALBANY         MOSUNNY   76  61  59 W12       29.85S
$$

NJZ001-105-106-008-010-013-015-019>022-104-311400-
NEW JERSEY

CITY           SKY/WX    TMP DP  RH WIND       PRES   REMARKS
NEWARK/LIBERTY MOSUNNY   80  61  52 W5        29.88S
TETERBORO      SUNNY     79  59  50 NW6       29.87S
CALDWELL       SUNNY     76  61  59 CALM      29.89S
MORRISTOWN     SUNNY     81  66  61 NW3       29.90R
SOMERVILLE     SUNNY     76  64  66 CALM      29.88S
SUSSEX         SUNNY     72  63  73 S5        29.90F
ANDOVER          N/A     70  65  84 SE3       29.92S
TRENTON        LGT RAIN  76  63  64 NW6       29.90S
MILLVILLE      SUNNY     79  64  60 NW6       29.92R
ATLANTIC CITY  SUNNY     78  66  66 N8        29.91R
WRIGHTSTOWN    SUNNY     77  66  69 NW7       29.88S
TOMS RIVER       N/A     75  66  73 NW6       29.90S
BELMAR         SUNNY     77  64  65 W7        29.89F
$$

PAZ047>061-062-071-311400-
EASTERN PENNSYLVANIA

CITY           SKY/WX    TMP DP  RH WIND       PRES   REMARKS
PHILADELPHIA   SUNNY     80  58  46 NW9       29.91S
ALLENTOWN      SUNNY     74  62  66 W6        29.92S
SCRANTON       SUNNY     73  59  61 SW7       29.94S
$$

CTZ002-004>006-009-010-012-RIZ004-006-007-MAZ004-011-015-311400-
SOUTHERN NEW ENGLAND
 IN CT

CITY           SKY/WX    TMP DP  RH WIND       PRES   REMARKS
BRADLEY INTL   MOSUNNY   76  65  68 W7        29.84S
HARTFORD       SUNNY     77  65  66 W5        29.84S
DANBURY        SUNNY     73  64  73 SW7       29.89S
WTRBRY/OXFORD  SUNNY     72  63  73 CALM      29.90S
BRIDGEPORT     SUNNY     78  65  63 W5        29.86S
MERIDEN        SUNNY     77  65  66 W6        29.85F
NEW HAVEN      SUNNY     75  66  73 SW3       29.86S
CHESTER        FAIR      75  66  73 W3        29.87S
GROTON         PTSUNNY   72  71  97 SW5       29.84S FOG
WILLIMANTIC    SUNNY     76  67  73 CALM      29.85S

 IN RI

CITY           SKY/WX    TMP DP  RH WIND       PRES   REMARKS
PROVIDENCE     MOSUNNY   78  66  66 W10       29.83F
BLOCK ISLAND     N/A     75  72  88 W6        29.86S
WESTERLY       SUNNY     77  70  79 SW3       29.85S

 IN MA

CITY           SKY/WX    TMP DP  RH WIND       PRES   REMARKS
BOSTON         MOSUNNY   80  63  55 W10       29.80F
WORCESTER      SUNNY     71  64  78 W9        29.86S
WESTFIELD      SUNNY     75  64  68 SW5       29.84S
PROVINCETOWN   SUNNY     75  64  69 W8        29.81S
NANTUCKET      SUNNY     82  66  58 W12       29.82S
$$

ANZ330-335-338-340-345-350-353-355-311400-
COASTAL MARINE OBSERVATIONS


STATION/POSITION TIME  SKY/WX   TEMP    WIND        PRES    VSBY  WAVE
                                AIR SEA DIR/SP/G                  HT/PER
                 (UTC)          (F)     (DEG/KT/KT) (MB)    (MI)  (FT/S)
NY HARB ENTRANCE 1150            76 76  300/  8/ 10 1011.1          2/10
4S FIRE IS       NOT AVBL
20S FIRE ISLAND  1150            76 74  330/ 12/ 14 1010.7          3/ 5
GREAT SOUTH BAY  1200            74 80  330/  8/ 10   N/A
23SW MTP         1250            71 72  290/  6/  6 1010.4          3/ 7
HUDSON CANYON    NOT AVBL
KINGS POINT      1200            75 71  340/  2/  3 1010.9
EXECUTION ROCKS  1200            72     200/  2/  2   N/A
CENTRAL LI SOUND NOT AVBL
EASTERN LI SOUND 1200            71 70  260/  6/  8   N/A
ROBBINS REEF     1200            75     280/  6/  8 1010.7
$$


>>>>>>>>>>>>>>>>>>>>>>>>>>>> KEY <<<<<<<<<<<<<<<<<<<<<<<<<<<
>                                                          <
>     SKY/WX - SKY CONDITION/PRESENT WEATHER               <
>     TMP    - TEMPERATURE IN FAHRENHEIT                   <
>     DP     - DEWPOINT IN FAHRENHEIT                      <
>     RH     - RELATIVE HUMIDITY IN PERCENT                <
>     WIND   - DIRECTION AND SPEED IN MPH                  <
>     PRES   - MEAN SEA LEVEL PRESSURE IN INCHES OF HG     <
>     WCI    - WIND CHILL INDEX                            <
>     VSB    - VISIBILITY IN MILES                         <
>     HX     - HEAT INDEX                                  <
>     TC     - TEMPERATURE IN CELSIUS                      <
>     VRB    - VARIABLE WIND DIRECTION                     <
>                                                          <
>>>>>>>>>>>>>>>>>>>>>>>>>>>> KEY <<<<<<<<<<<<<<<<<<<<<<<<<<<





USA.gov is the U.S. government's official web portal to all federal, state and local government web resources and services.